Weather History for Crestview, FL

Change the Weather History Date:

Tuesday, March 5, 2013

  Actual Average Record
Temperature  
Mean Temperature 60 °F -  
Max Temperature 73 °F - - ()
Min Temperature 44 °F - - ()
Degree Days  
Heating Degree Days 5    
Growing Degree Days 10 (Base 50)    
Moisture  
Dew Point 56 °F    
Average Humidity 80    
Maximum Humidity 100    
Minimum Humidity 52    
Precipitation  
Precipitation 0.05 in - - ()
Sea Level Pressure  
Sea Level Pressure 30.03 in    
Wind  
Wind Speed 11 mph (SW)    
Max Wind Speed 24 mph    
Max Gust Speed 37 mph    
Visibility 9 miles    
Events Rain    
T = Trace of Precipitation, MM = Missing Value Source: NWS Daily Summary

Daily Weather History Graph

Daily Weather History Graph

Search for Another Location

Airport:

Trip Planner

Search our weather history database for the weather conditions in past years. The results will help you decide how hot, cold, wet, or windy it might be!

Date:

Astronomy

Mar. 05, 2013 Rise Set
Actual Time 6:07 AM CST 5:47 PM CST
Civil Twilight 5:43 AM CST 6:11 PM CST
Nautical Twilight 5:15 AM CST 6:39 PM CST
Astronomical Twilight 4:47 AM CST 7:07 PM CST
Moon 1:01 AM CST (3/5) 11:44 AM CST (3/5)
Length of Visible Light 12h 28m
Length of Day
11h 40m
Last Quarter, 40% of the Moon is Illuminated
Mar 5
Last Quarter
Mar 11
New
Mar 19
First Quarter
Mar 27
Full
Apr 2
Last Quarter

Hourly Weather History & Observations

Time (CST) Temp. Windchill Dew Point Humidity Pressure Visibility Wind Dir Wind Speed Gust Speed Precip Events Conditions
12:48 AM 60.8 °F - 55.4 °F 82% 30.02 in 10.0 mi South 11.5 mph - N/A   Scattered Clouds
12:58 AM 60.8 °F - 55.4 °F 82% 30.02 in 10.0 mi South 12.7 mph - N/A   Mostly Cloudy
1:58 AM 61.7 °F - 56.7 °F 84% 30.02 in 10.0 mi South 11.5 mph - N/A   Overcast
2:08 AM 62.6 °F - 57.2 °F 82% 30.02 in 10.0 mi WSW 11.5 mph - N/A   Mostly Cloudy
2:10 AM 62.6 °F - 57.2 °F 82% 30.02 in 10.0 mi SW 9.2 mph - N/A Rain Light Rain
2:19 AM 62.6 °F - 57.2 °F 82% 30.02 in 10.0 mi SSW 12.7 mph - N/A   Mostly Cloudy
2:24 AM 62.6 °F - 57.2 °F 82% 30.02 in 10.0 mi SSW 11.5 mph - N/A   Mostly Cloudy
2:28 AM 62.6 °F - 57.2 °F 82% 30.02 in 10.0 mi SSW 10.4 mph - N/A Rain Light Rain
2:37 AM 62.6 °F - 57.2 °F 82% 30.01 in 10.0 mi SSW 10.4 mph - N/A   Mostly Cloudy
2:42 AM 62.6 °F - 57.2 °F 82% 30.01 in 10.0 mi South 9.2 mph - N/A   Mostly Cloudy
2:58 AM 61.2 °F - 57.7 °F 88% 30.02 in 10.0 mi South 6.9 mph - 0.00 in   Scattered Clouds
3:28 AM 60.8 °F - 59.0 °F 94% 30.02 in 10.0 mi South 5.8 mph - N/A   Mostly Cloudy
3:58 AM 60.8 °F - 58.6 °F 93% 30.03 in 10.0 mi South 4.6 mph - N/A   Mostly Cloudy
4:13 AM 59.0 °F - 59.0 °F 100% 30.03 in 10.0 mi SSE 4.6 mph - N/A   Mostly Cloudy
4:58 AM 58.1 °F - 57.7 °F 99% 30.04 in 10.0 mi SSE 4.6 mph - N/A   Scattered Clouds
5:53 AM 59.0 °F - 59.0 °F 100% 30.04 in 7.0 mi SSE 2.3 mph - N/A Rain Light Rain
5:58 AM 58.6 °F - 58.3 °F 99% 30.05 in 8.0 mi SSE 2.3 mph - 0.00 in Rain Light Rain
6:07 AM 59.0 °F - 59.0 °F 100% 30.03 in 7.0 mi SSE 4.6 mph - N/A   Mostly Cloudy
6:40 AM 59.0 °F - 59.0 °F 100% 30.04 in 7.0 mi SSE 3.5 mph - N/A Rain Light Rain
6:49 AM 59.0 °F - 59.0 °F 100% 30.04 in 8.0 mi South 2.3 mph - N/A   Scattered Clouds
6:58 AM 59.7 °F - 59.4 °F 99% 30.05 in 8.0 mi South 3.5 mph - 0.00 in   Mostly Cloudy
7:58 AM 63.7 °F - 59.5 °F 86% 30.05 in 10.0 mi South 5.8 mph - N/A   Partly Cloudy
8:55 AM 67.6 °F - 59.2 °F 74% 30.05 in 10.0 mi SSW 9.2 mph - N/A   Mostly Cloudy
9:21 AM 68.0 °F - 59.0 °F 73% 30.08 in 10.0 mi WSW 10.4 mph - N/A   Mostly Cloudy
9:33 AM 69.8 °F - 59.0 °F 68% 30.07 in 10.0 mi WSW 12.7 mph - N/A   Scattered Clouds
9:43 AM 69.8 °F - 57.2 °F 64% 30.07 in 10.0 mi WSW 13.8 mph 20.7 mph N/A   Mostly Cloudy
9:56 AM 70.9 °F - 58.3 °F 64% 30.07 in 10.0 mi WSW 12.7 mph 20.7 mph N/A   Mostly Cloudy
10:58 AM 72.3 °F - 57.7 °F 60% 30.05 in 10.0 mi WSW 18.4 mph 29.9 mph N/A   Mostly Cloudy
11:57 AM 73.4 °F - 55.8 °F 54% 30.01 in 10.0 mi SW 24.2 mph 32.2 mph N/A   Mostly Cloudy
12:55 PM 73.0 °F - 54.5 °F 52% 29.99 in 10.0 mi SW 15.0 mph 29.9 mph N/A   Mostly Cloudy
1:55 PM 72.3 °F - 56.7 °F 58% 29.97 in 10.0 mi SW 19.6 mph 27.6 mph N/A   Mostly Cloudy
2:55 PM 70.0 °F - 55.6 °F 60% 29.96 in 10.0 mi WSW 21.9 mph 35.7 mph N/A   Overcast
3:58 PM 71.2 °F - 57.7 °F 62% 29.93 in 10.0 mi SW 23.0 mph 36.8 mph N/A   Scattered Clouds
4:55 PM 68.9 °F - 58.5 °F 69% 29.94 in 10.0 mi SW 20.7 mph 28.8 mph N/A   Mostly Cloudy
5:55 PM 66.6 °F - 59.2 °F 77% 29.95 in 10.0 mi SW 16.1 mph 24.2 mph N/A   Mostly Cloudy
6:12 PM 66.2 °F - 59.0 °F 78% 29.97 in 7.0 mi WNW 20.7 mph 25.3 mph N/A Rain Light Rain Showers
6:35 PM 62.6 °F - 57.2 °F 82% 29.98 in 7.0 mi WNW 10.4 mph - N/A   Mostly Cloudy
6:55 PM 61.3 °F - 57.0 °F 86% 30.00 in 7.0 mi WNW 10.4 mph - 0.05 in   Mostly Cloudy
7:55 PM 58.5 °F - 52.3 °F 80% 30.04 in 10.0 mi NW 11.5 mph 17.3 mph N/A   Scattered Clouds
8:56 PM 54.7 °F - 46.8 °F 75% 30.08 in 10.0 mi NNW 13.8 mph - N/A   Partly Cloudy
9:55 PM 50.2 °F - 41.7 °F 73% 30.12 in 10.0 mi NNW 13.8 mph 20.7 mph N/A   Partly Cloudy
10:55 PM 47.7 °F - 38.7 °F 71% 30.13 in 10.0 mi NNW 9.2 mph - N/A   Clear
11:55 PM 44.6 °F 43.1 °F 37.9 °F 77% 30.12 in 10.0 mi NW 3.5 mph - N/A   Clear